Weather in Patna

India     25°36′20″N   85°06′42″E
temp.,
°C
wind,
m/s
gust,
m/s
humid.,
%
clouds,
%
prec.,
mm/h
press.,
hPa
HPBL,
m
26 january, tue
tue2623:30+13wnw34510 0.0 101629
02:30+11nw34560 0.0 101539
05:30+9w22680 0.0 101526
08:30+14wsw22540 0.0 1018175
11:30+21nw23370 0.0 1017840
14:30+24wnw34280 0.0 10131339
17:30+18wnw23410 0.0 101342
20:30+14nw23490 0.0 101528
27 january, wed
wed2723:30+13nnw34510 0.0 101638
02:30+10w22580 0.0 101426
05:30+8wnw23650 0.0 101527
08:30+13w22500 0.0 1018182
11:30+21nw22320 0.0 1017802
14:30+23wnw33260 0.0 10141143
17:30+17wnw22380 0.0 101333
20:30+14nw23430 0.0 101526
28 january, thu
thu2823:30+12nnw23470 0.0 101626
02:30+9nw12570 0.0 101525
05:30+8wnw11690 0.0 101624
08:30+14wnw11490 0.0 1018127
11:30+22e22330 0.0 1017744
14:30+25nne11250 0.0 10141097
17:30+18nne11360 0.0 101324
20:30+15n01410 0.0 101523
29 january, fri
fri2923:30+16ne23389 0.0 101632
02:30+14wnw444951 0.0 101455
05:30+15n445270 0.3 101592
08:30+18ese225060 0.6 1017124
11:30+24w323937 0.6 1017670
14:30+25nw32406 0.0 1013953
17:30+20wnw23553 0.0 101239
20:30+17wnw34560 0.0 101447
30 january, sat
sat3023:30+15nw34580 0.0 101549
02:30+12wnw34610 0.0 101441
05:30+10w33640 0.0 101432
08:30+15w35520 0.0 1017241
11:30+21w34340 0.0 1016800
14:30+24w45260 0.0 10131357
17:30+17wnw34410 0.0 101364
20:30+13nw34460 0.0 101633